Location: *
(30.4476°N, 114.3798°E)
Time: 01:06:27
(UTC+00:00)

COSMO-SKYMED 1 - Pass Details

Date: 09 April 2020
Orbit: 621 x 623 km, 97.9° (Epoch: 31 May)

Event Time Altitude Azimuth Distance (km) Brightness Sun altitude
Rises 21:19:37 0° 153° (SSE) 2,887 6.2 -9.5°
Reaches altitude 10° 21:21:52 10° 146° (SSE) 1,985 5.4 -9.1°
Maximum altitude 21:25:58 44° 75° (ENE) 863 4.0 -8.2°
Drops below altitude 10° 21:30:06 10° 3° (N) 1,997 5.4 -7.3°
Sets 21:32:21 0° 357° (N) 2,907 6.1 -6.9°
